Back to Top

My Weather Underground Personal Weather Station Historical Data with Graphs...

Delerius Weather Station Historical Data
Daily Summary for November 29, 2020 Units:  English    Metric   Both
Daily Weekly Monthly Yearly
  High: Low: Average:
Temperature: 46.4 °F 43.3 °F 45.3 °F
Dew Point: 45.3 °F 42.6 °F 44.6 °F
Humidity: 98% 96% 97%
Wind Speed: 7.8mph 0mph 2.5mph
Wind Gust: 11mph - -
Wind- - SW
Pressure: 30.3 in 30.3 in -
Precipitation: 0 in    
 
 
Tabular Data for November 29, 2020
Time Temperature Dew Point Pressure Wind Wind Speed Wind Gust Humidity Rainfall Rate (Hourly) solar
00:04 46.2 °F 45.1 °F 30.3 in Calm     96% 0 in 0 W/m2
00:09 46.2 °F 45.1 °F 30.3 in Calm     96% 0 in 0 W/m2
00:14 46 °F 45 °F 30.3 in Calm     96% 0 in 0 W/m2
00:19 46 °F 45 °F 30.3 in Calm     96% 0 in 0 W/m2
00:24 46 °F 45 °F 30.3 in Calm     96% 0 in 0 W/m2
00:29 46.2 °F 45.1 °F 30.3 in Calm     96% 0 in 0 W/m2
00:34 46.2 °F 45.1 °F 30.3 in Calm     96% 0 in 0 W/m2
00:39 46.2 °F 45.1 °F 30.3 in Calm     96% 0 in 0 W/m2
00:44 46.4 °F 45.3 °F 30.3 in Calm     96% 0 in 0 W/m2
00:49 46.4 °F 45.1 °F 30.3 in Calm     96% 0 in 0 W/m2
00:54 46.2 °F 45.1 °F 30.3 in Calm     96% 0 in 0 W/m2
00:59 46.2 °F 45.1 °F 30.3 in Calm     96% 0 in 0 W/m2
01:04 46.2 °F 45.1 °F 30.3 in Calm     96% 0 in 0 W/m2
01:09 46.2 °F 45.1 °F 30.3 in Calm     96% 0 in 0 W/m2
01:14 46.2 °F 45.1 °F 30.3 in Calm     96% 0 in 0 W/m2
01:19 46.2 °F 45.1 °F 30.3 in Calm     96% 0 in 0 W/m2
01:24 46.2 °F 45.1 °F 30.3 in Calm     96% 0 in 0 W/m2
01:29 46.2 °F 45.1 °F 30.3 in Calm     96% 0 in 0 W/m2
01:34 46.2 °F 45.1 °F 30.3 in Calm     96% 0 in 0 W/m2
01:39 46.2 °F 45.1 °F 30.3 in Calm     96% 0 in 0 W/m2
01:44 46.2 °F 45.1 °F 30.3 in Calm     96% 0 in 0 W/m2
01:49 46.4 °F 45.1 °F 30.3 in Calm     96% 0 in 0 W/m2
01:54 46.2 °F 45.1 °F 30.3 in Calm     96% 0 in 0 W/m2
01:59 46.2 °F 45.1 °F 30.3 in Calm     96% 0 in 0 W/m2
02:04 46.2 °F 45.1 °F 30.3 in Calm     96% 0 in 0 W/m2
02:09 46.2 °F 45.1 °F 30.3 in Calm     96% 0 in 0 W/m2
02:14 46.2 °F 45.1 °F 30.3 in Calm     96% 0 in 0 W/m2
02:19 46.4 °F 45.3 °F 30.3 in Calm     96% 0 in 0 W/m2
02:24 46.4 °F 45.3 °F 30.3 in Calm     96% 0 in 0 W/m2
02:29 46.4 °F 45.3 °F 30.3 in Calm     96.2% 0 in 0 W/m2
02:34 46.2 °F 45.1 °F 30.3 in Calm     96% 0 in 0 W/m2
02:39 46.4 °F 45.3 °F 30.3 in SE 0.1 mph 3 mph 96% 0 in 0 W/m2
02:44 46.4 °F 45.3 °F 30.3 in SE 1.9 mph 5 mph 96% 0 in 0 W/m2
02:49 46.2 °F 45.1 °F 30.3 in SSE 1.1 mph 5 mph 96% 0 in 0 W/m2
02:54 46.2 °F 45.1 °F 30.3 in Calm   2 mph 96% 0 in 0 W/m2
02:59 46.2 °F 45.1 °F 30.3 in Calm   2 mph 96% 0 in 0 W/m2
03:04 46.2 °F 45.1 °F 30.3 in South 0.2 mph 2 mph 96% 0 in 0 W/m2
03:09 46.2 °F 45.1 °F 30.3 in Calm   2 mph 96% 0 in 0 W/m2
03:14 46.2 °F 45.1 °F 30.3 in Calm   1 mph 96% 0 in 0 W/m2
03:19 46.2 °F 45.1 °F 30.3 in Calm   1 mph 96% 0 in 0 W/m2
03:24 46.2 °F 45.1 °F 30.3 in Calm     96.1% 0 in 0 W/m2
03:29 46 °F 45.1 °F 30.3 in Calm   1 mph 97% 0 in 0 W/m2
03:34 46 °F 45.1 °F 30.3 in South 0.2 mph 3 mph 97% 0 in 0 W/m2
03:39 46 °F 45.1 °F 30.3 in South 1.1 mph 4 mph 97% 0 in 0 W/m2
03:44 46 °F 45.1 °F 30.3 in Calm   1 mph 97% 0 in 0 W/m2
03:49 46 °F 45.1 °F 30.3 in Calm     97% 0 in 0 W/m2
03:54 46 °F 45.1 °F 30.3 in Calm     97% 0 in 0 W/m2
03:59 46 °F 45.1 °F 30.3 in Calm     97% 0 in 0 W/m2
04:04 45.9 °F 45 °F 30.3 in Calm     96.8% 0 in 0 W/m2
04:09 45.9 °F 45 °F 30.3 in Calm     96.3% 0 in 0 W/m2
04:14 45.9 °F 45.1 °F 30.3 in Calm     97% 0 in 0 W/m2
04:19 45.9 °F 45.1 °F 30.3 in Calm     97% 0 in 0 W/m2
04:24 46 °F 45.1 °F 30.3 in Calm   1 mph 97% 0 in 0 W/m2
04:29 45.9 °F 45.1 °F 30.3 in Calm   1 mph 97% 0 in 0 W/m2
04:34 45.9 °F 45.1 °F 30.3 in Calm   1 mph 97% 0 in 0 W/m2
04:39 45.9 °F 45.1 °F 30.3 in Calm     97% 0 in 0 W/m2
04:44 45.9 °F 45.1 °F 30.3 in Calm     97% 0 in 0 W/m2
04:49 45.9 °F 45.1 °F 30.3 in Calm     97% 0 in 0 W/m2
04:54 45.9 °F 45.1 °F 30.3 in Calm     97% 0 in 0 W/m2
04:59 45.9 °F 45.1 °F 30.3 in Calm     97% 0 in 0 W/m2
05:04 45.9 °F 45.1 °F 30.3 in Calm     97% 0 in 0 W/m2
05:09 45.9 °F 45.1 °F 30.3 in Calm     97% 0 in 0 W/m2
05:14 45.9 °F 45.1 °F 30.3 in Calm     97% 0 in 0 W/m2
05:19 45.9 °F 45.1 °F 30.3 in Calm     97% 0 in 0 W/m2
05:24 45.9 °F 45.1 °F 30.3 in Calm     97% 0 in 0 W/m2
05:29 45.9 °F 45.1 °F 30.3 in Calm     97% 0 in 0 W/m2
05:34 45.7 °F 45 °F 30.3 in Calm     97% 0 in 0 W/m2
05:39 45.7 °F 45 °F 30.3 in Calm   1 mph 97% 0 in 0 W/m2
05:44 45.7 °F 45 °F 30.3 in Calm   1 mph 97% 0 in 0 W/m2
05:49 45.7 °F 45 °F 30.3 in Calm   1 mph 97% 0 in 0 W/m2
05:54 45.7 °F 45 °F 30.3 in Calm   2 mph 97% 0 in 0 W/m2
05:59 45.7 °F 45 °F 30.3 in Calm   2 mph 97% 0 in 0 W/m2
06:04 45.7 °F 45 °F 30.3 in Calm   1 mph 97% 0 in 0 W/m2
06:09 45.7 °F 45 °F 30.3 in Calm   1 mph 97% 0 in 0 W/m2
06:14 45.7 °F 45 °F 30.3 in Calm   2 mph 97% 0 in 0 W/m2
06:19 45.7 °F 44.8 °F 30.3 in South 0.7 mph 3 mph 97% 0 in 0 W/m2
06:24 45.5 °F 44.8 °F 30.3 in South 0.1 mph 3 mph 97% 0 in 0 W/m2
06:29 45.5 °F 44.8 °F 30.3 in Calm   2 mph 97% 0 in 0 W/m2
06:34 45.5 °F 44.6 °F 30.3 in South 0.6 mph 2 mph 97% 0 in 0 W/m2
06:39 45.3 °F 44.6 °F 30.3 in South 0.3 mph 2 mph 97% 0 in 0 W/m2
06:44 45.3 °F 44.4 °F 30.3 in Calm   2 mph 97% 0 in 0 W/m2
06:49 45.3 °F 44.4 °F 30.3 in Calm   2 mph 97% 0 in 0 W/m2
06:54 45.3 °F 44.4 °F 30.3 in South 0.2 mph 2 mph 97% 0 in 0 W/m2
06:59 45.3 °F 44.4 °F 30.3 in SSE 2 mph 5 mph 97% 0 in 0 W/m2
07:04 45.1 °F 44.4 °F 30.3 in South 1.9 mph 5 mph 97% 0 in 0 W/m2
07:09 45.1 °F 44.2 °F 30.3 in South 1 mph 5 mph 97% 0 in 0 W/m2
07:14 45.1 °F 44.2 °F 30.3 in South 0.9 mph 4 mph 97% 0 in 0 W/m2
07:19 45.1 °F 44.2 °F 30.3 in South 0.3 mph 4 mph 97% 0 in 0 W/m2
07:24 45.1 °F 44.2 °F 30.3 in SSE 0.4 mph 4 mph 97% 0 in 0 W/m2
07:29 45 °F 44.2 °F 30.3 in Calm   2 mph 97% 0 in 0 W/m2
07:34 45 °F 44.2 °F 30.3 in SE 0.4 mph 2 mph 97% 0 in 0 W/m2
07:39 45 °F 44.2 °F 30.3 in SE 0.2 mph 2 mph 97% 0 in 0 W/m2
07:44 45 °F 44.2 °F 30.3 in Calm   1 mph 97% 0 in 0 W/m2
07:49 45 °F 44.2 °F 30.3 in Calm     97% 0 in 0 W/m2
07:54 44.8 °F 44.1 °F 30.3 in Calm     97% 0 in 0 W/m2
07:59 44.8 °F 44.1 °F 30.3 in Calm     97% 0 in 0 W/m2
08:04 44.8 °F 44.1 °F 30.3 in Calm   1 mph 97% 0 in 0 W/m2
08:09 44.8 °F 44.1 °F 30.3 in Calm   1 mph 97% 0 in 5 W/m2
08:14 44.6 °F 43.9 °F 30.3 in SSE 0.6 mph 2 mph 97% 0 in 7 W/m2
08:19 44.6 °F 43.9 °F 30.3 in SSE 0.7 mph 4 mph 97% 0 in 9 W/m2
08:24 44.6 °F 43.9 °F 30.3 in Calm     97% 0 in 9 W/m2
08:29 44.6 °F 43.9 °F 30.3 in Calm   1 mph 97% 0 in 11 W/m2
08:34 44.8 °F 43.9 °F 30.3 in Calm   1 mph 97% 0 in 11 W/m2
08:39 44.8 °F 44.1 °F 30.3 in Calm     97% 0 in 11 W/m2
08:44 44.8 °F 44.1 °F 30.3 in Calm   1 mph 97% 0 in 11 W/m2
08:49 44.8 °F 43.9 °F 30.3 in Calm   1 mph 97% 0 in 12 W/m2
08:54 44.8 °F 44.1 °F 30.3 in Calm   1 mph 97% 0 in 14 W/m2
08:59 44.8 °F 44.1 °F 30.3 in Calm     97% 0 in 16 W/m2
09:04 44.8 °F 44.1 °F 30.3 in Calm     97% 0 in 16 W/m2
09:09 44.8 °F 44.1 °F 30.3 in Calm     97% 0 in 16 W/m2
09:14 44.8 °F 44.1 °F 30.3 in Calm     97% 0 in 18 W/m2
09:19 44.8 °F 44.1 °F 30.3 in Calm     97% 0 in 18 W/m2
09:24 44.8 °F 44.1 °F 30.3 in Calm   1 mph 97% 0 in 19 W/m2
09:29 44.8 °F 44.1 °F 30.3 in Calm     97% 0 in 14 W/m2
09:34 44.8 °F 44.1 °F 30.3 in Calm   1 mph 97% 0 in 12 W/m2
09:39 44.8 °F 44.1 °F 30.3 in Calm   2 mph 97% 0 in 18 W/m2
09:44 44.8 °F 44.1 °F 30.3 in Calm   1 mph 97% 0 in 26 W/m2
09:49 44.8 °F 44.1 °F 30.3 in SSE 0.1 mph 4 mph 97% 0 in 37 W/m2
09:54 44.8 °F 44.1 °F 30.3 in SSE 1.1 mph 5 mph 97% 0 in 44 W/m2
09:59 44.8 °F 44.1 °F 30.3 in SE 0.5 mph 5 mph 97% 0 in 44 W/m2
10:04 44.8 °F 44.1 °F 30.3 in SSE 1.2 mph 5 mph 97% 0 in 33 W/m2
10:09 45 °F 44.1 °F 30.3 in SE 0.4 mph 4 mph 97% 0 in 37 W/m2
10:14 45 °F 44.2 °F 30.3 in SE 1.5 mph 6 mph 97% 0 in 30 W/m2
10:19 45 °F 44.1 °F 30.3 in SE 0.9 mph 5 mph 97% 0 in 25 W/m2
10:24 44.8 °F 44.1 °F 30.3 in SE 1.1 mph 6 mph 97% 0 in 19 W/m2
10:29 44.8 °F 44.1 °F 30.3 in SE 2.8 mph 8 mph 97% 0 in 18 W/m2
10:34 44.8 °F 44.1 °F 30.3 in SSE 2.8 mph 8 mph 97% 0 in 16 W/m2
10:39 44.6 °F 43.9 °F 30.3 in SSE 2.1 mph 7 mph 97% 0 in 12 W/m2
10:44 44.6 °F 43.9 °F 30.3 in SSE 3 mph 7 mph 97% 0 in 14 W/m2
10:49 44.6 °F 43.7 °F 30.3 in South 3 mph 6 mph 97% 0 in 14 W/m2
10:54 44.6 °F 43.9 °F 30.3 in South 2.2 mph 7 mph 97.2% 0 in 12 W/m2
10:59 44.4 °F 43.7 °F 30.3 in SSE 4.2 mph 8 mph 97.6% 0 in 12 W/m2
11:04 44.4 °F 43.9 °F 30.3 in South 3.5 mph 8 mph 97.7% 0 in 30 W/m2
11:09 44.4 °F 43.9 °F 30.3 in South 3 mph 7 mph 97.9% 0 in 30 W/m2
11:14 44.4 °F 43.5 °F 30.3 in South 5 mph 7 mph 97% 0 in 33 W/m2
11:19 44.4 °F 43.5 °F 30.3 in South 3.7 mph 7 mph 97% 0 in 32 W/m2
11:24 44.4 °F 43.5 °F 30.3 in South 2.8 mph 6 mph 97% 0 in 33 W/m2
11:29 44.4 °F 43.5 °F 30.3 in SSW 4.2 mph 8 mph 97% 0 in 28 W/m2
11:34 44.4 °F 43.5 °F 30.3 in SSW 5.8 mph 8 mph 97% 0 in 46 W/m2
11:39 44.4 °F 43.5 °F 30.3 in SSW 5.8 mph 8 mph 97% 0 in 54 W/m2
11:44 44.4 °F 43.5 °F 30.3 in SSW 6.7 mph 8 mph 97% 0 in 65 W/m2
11:49 44.4 °F 43.5 °F 30.3 in SSW 5.8 mph 8 mph 97% 0 in 70 W/m2
11:54 44.4 °F 43.5 °F 30.3 in SSW 5.4 mph 8 mph 97% 0 in 56 W/m2
11:59 44.4 °F 43.5 °F 30.3 in SW 5.3 mph 7 mph 97% 0 in 33 W/m2
12:04 44.4 °F 43.5 °F 30.3 in SSW 7.4 mph 10 mph 97% 0 in 37 W/m2
12:09 44.4 °F 43.5 °F 30.3 in SSW 6.3 mph 10 mph 97% 0 in 37 W/m2
12:14 44.4 °F 43.5 °F 30.3 in SSW 5.8 mph 7 mph 97% 0 in 39 W/m2
12:19 44.4 °F 43.7 °F 30.3 in SSW 6 mph 8 mph 97.3% 0 in 35 W/m2
12:24 44.4 °F 43.7 °F 30.3 in SSW 5.7 mph 8 mph 97.2% 0 in 35 W/m2
12:29 44.6 °F 43.9 °F 30.3 in SSW 6.1 mph 9 mph 97.7% 0 in 39 W/m2
12:34 44.6 °F 44.1 °F 30.3 in SW 5.4 mph 9 mph 98% 0 in 35 W/m2
12:39 44.6 °F 44.1 °F 30.3 in SSW 5.8 mph 7 mph 98% 0 in 35 W/m2
12:44 44.8 °F 44.2 °F 30.3 in SW 4.8 mph 7 mph 98% 0 in 35 W/m2
12:49 44.8 °F 44.2 °F 30.3 in SW 5.7 mph 11 mph 98% 0 in 33 W/m2
12:54 44.8 °F 44.2 °F 30.3 in SSW 7.5 mph 11 mph 98% 0 in 33 W/m2
12:59 44.8 °F 44.2 °F 30.3 in SW 7 mph 10 mph 98% 0 in 32 W/m2
13:04 44.8 °F 44.2 °F 30.3 in SW 5.9 mph 10 mph 98% 0 in 30 W/m2
13:09 44.8 °F 44.2 °F 30.3 in SW 6.5 mph 10 mph 98% 0 in 30 W/m2
13:14 44.8 °F 44.2 °F 30.3 in SW 7.8 mph 10 mph 98% 0 in 26 W/m2
13:19 44.8 °F 44.2 °F 30.3 in WSW 5.6 mph 9 mph 98% 0 in 26 W/m2
13:24 44.8 °F 44.2 °F 30.3 in SW 7.3 mph 9 mph 98% 0 in 28 W/m2
13:29 44.6 °F 43.9 °F 30.3 in SW 6.3 mph 9 mph 97.7% 0 in 26 W/m2
13:34 44.4 °F 43.9 °F 30.3 in WSW 6.2 mph 9 mph 97.6% 0 in 21 W/m2
13:39 44.6 °F 44.1 °F 30.3 in SW 7 mph 9 mph 98% 0 in 26 W/m2
13:44 44.4 °F 43.9 °F 30.3 in WSW 7 mph 9 mph 98% 0 in 30 W/m2
13:49 44.4 °F 43.9 °F 30.3 in SW 6.8 mph 9 mph 98% 0 in 25 W/m2
13:54 44.4 °F 43.9 °F 30.3 in SW 6.5 mph 9 mph 98% 0 in 23 W/m2
13:59 44.4 °F 43.9 °F 30.3 in SW 6.5 mph 9 mph 98% 0 in 23 W/m2
14:04 44.4 °F 43.9 °F 30.3 in SW 4.8 mph 8 mph 98% 0 in 21 W/m2
14:09 44.4 °F 43.9 °F 30.3 in WSW 2.7 mph 5 mph 98% 0 in 21 W/m2
14:14 44.6 °F 44.1 °F 30.3 in SW 2.9 mph 6 mph 98% 0 in 21 W/m2
14:19 44.6 °F 44.1 °F 30.3 in SW 3 mph 6 mph 98% 0 in 21 W/m2
14:24 44.8 °F 44.2 °F 30.3 in SW 4 mph 6 mph 98% 0 in 16 W/m2
14:29 44.8 °F 44.2 °F 30.3 in SW 4.9 mph 7 mph 98% 0 in 16 W/m2
14:34 44.8 °F 44.2 °F 30.3 in SSW 5 mph 8 mph 98% 0 in 21 W/m2
14:39 44.8 °F 44.2 °F 30.3 in SW 3.7 mph 7 mph 98% 0 in 18 W/m2
14:44 44.8 °F 44.2 °F 30.3 in SW 3.3 mph 5 mph 98% 0 in 14 W/m2
14:49 44.8 °F 44.2 °F 30.3 in SW 3.7 mph 6 mph 98% 0 in 12 W/m2
14:54 44.8 °F 44.2 °F 30.3 in WSW 4.3 mph 6 mph 98% 0 in 9 W/m2
14:59 44.8 °F 44.4 °F 30.3 in WSW 4 mph 6 mph 98% 0 in 9 W/m2
15:04 45 °F 44.4 °F 30.3 in WSW 3.3 mph 7 mph 98% 0 in 7 W/m2
15:09 45 °F 44.4 °F 30.3 in SW 5.9 mph 9 mph 98% 0 in 7 W/m2
15:14 45 °F 44.4 °F 30.3 in WSW 5.5 mph 9 mph 98% 0 in 7 W/m2
15:19 45 °F 44.4 °F 30.3 in WSW 4.3 mph 6 mph 98% 0 in 5 W/m2
15:24 45 °F 44.4 °F 30.3 in SW 4.2 mph 7 mph 98% 0 in 0 W/m2
15:29 45 °F 44.4 °F 30.3 in WSW 3.9 mph 6 mph 98% 0 in 0 W/m2
15:34 45 °F 44.4 °F 30.3 in SW 5.3 mph 7 mph 98% 0 in 0 W/m2
15:39 45 °F 44.4 °F 30.3 in SW 4.3 mph 7 mph 98% 0 in 0 W/m2
15:44 45 °F 44.4 °F 30.3 in WSW 2.8 mph 6 mph 98% 0 in 0 W/m2
15:49 45.1 °F 44.6 °F 30.3 in WSW 3.5 mph 6 mph 98% 0 in 0 W/m2
15:54 45.1 °F 44.6 °F 30.3 in WSW 3.9 mph 6 mph 98% 0 in 0 W/m2
15:59 45.1 °F 44.6 °F 30.3 in WSW 3 mph 6 mph 98% 0 in 0 W/m2
16:04 45.1 °F 44.6 °F 30.3 in WSW 2.4 mph 5 mph 98% 0 in 0 W/m2
16:09 45.1 °F 44.6 °F 30.3 in WSW 4 mph 7 mph 98% 0 in 0 W/m2
16:14 45 °F 44.4 °F 30.3 in WSW 3.1 mph 6 mph 98% 0 in 0 W/m2
16:19 45.1 °F 44.6 °F 30.3 in WSW 1.9 mph 5 mph 98% 0 in 0 W/m2
16:24 45.1 °F 44.6 °F 30.3 in WSW 2.5 mph 6 mph 98% 0 in 0 W/m2
16:29 45.1 °F 44.6 °F 30.3 in West 2.9 mph 6 mph 98% 0 in 0 W/m2
16:34 45 °F 44.4 °F 30.3 in WSW 2.8 mph 6 mph 98% 0 in 0 W/m2
16:39 45 °F 44.4 °F 30.3 in WSW 4.2 mph 8 mph 98% 0 in 0 W/m2
16:44 45 °F 44.4 °F 30.3 in WSW 5.2 mph 7 mph 98% 0 in 0 W/m2
16:49 45 °F 44.4 °F 30.3 in WSW 5.4 mph 7 mph 98% 0 in 0 W/m2
16:54 45 °F 44.4 °F 30.3 in WSW 4.8 mph 7 mph 98% 0 in 0 W/m2
16:59 45 °F 44.4 °F 30.3 in SW 5.3 mph 7 mph 98% 0 in 0 W/m2
17:04 45 °F 44.4 °F 30.3 in WSW 5.2 mph 8 mph 98% 0 in 0 W/m2
17:09 45 °F 44.4 °F 30.3 in WSW 6 mph 8 mph 98% 0 in 0 W/m2
17:14 45.1 °F 44.6 °F 30.3 in WSW 5.3 mph 8 mph 98% 0 in 0 W/m2
17:19 45.1 °F 44.6 °F 30.3 in WSW 5.3 mph 8 mph 98% 0 in 0 W/m2
17:24 45.1 °F 44.6 °F 30.3 in WSW 5 mph 7 mph 98% 0 in 0 W/m2
17:29 45.1 °F 44.6 °F 30.3 in WSW 4.7 mph 7 mph 98% 0 in 0 W/m2
17:34 45.1 °F 44.6 °F 30.3 in WSW 3.7 mph 6 mph 98% 0 in 0 W/m2
17:39 45.1 °F 44.6 °F 30.3 in WSW 2.5 mph 6 mph 98% 0 in 0 W/m2
17:44 45.1 °F 44.6 °F 30.3 in WSW 3.6 mph 7 mph 98% 0 in 0 W/m2
17:49 45.1 °F 44.6 °F 30.3 in West 2 mph 5 mph 98% 0 in 0 W/m2
17:54 45.1 °F 44.6 °F 30.3 in West 2.5 mph 5 mph 98% 0 in 0 W/m2
17:59 45.1 °F 44.6 °F 30.3 in WSW 2.5 mph 7 mph 98% 0 in 0 W/m2
18:04 45.1 °F 44.6 °F 30.3 in WSW 2.1 mph 6 mph 98% 0 in 0 W/m2
18:09 45.1 °F 44.6 °F 30.3 in West 4.1 mph 7 mph 98% 0 in 0 W/m2
18:14 45.3 °F 44.8 °F 30.3 in West 1.6 mph 6 mph 98% 0 in 0 W/m2
18:19 45.3 °F 44.8 °F 30.3 in West 3 mph 7 mph 98% 0 in 0 W/m2
18:24 45.3 °F 44.8 °F 30.3 in West 1.7 mph 5 mph 98% 0 in 0 W/m2
18:29 45.3 °F 44.8 °F 30.3 in West 2.2 mph 5 mph 98% 0 in 0 W/m2
18:34 45.3 °F 44.8 °F 30.3 in West 2 mph 5 mph 98% 0 in 0 W/m2
18:39 45.3 °F 44.8 °F 30.3 in WSW 2.5 mph 5 mph 98% 0 in 0 W/m2
18:44 45.3 °F 44.8 °F 30.3 in WSW 3 mph 5 mph 98% 0 in 0 W/m2
18:49 45.3 °F 44.8 °F 30.3 in WSW 3.4 mph 6 mph 98% 0 in 0 W/m2
18:54 45.3 °F 44.8 °F 30.3 in WSW 2.7 mph 5 mph 98% 0 in 0 W/m2
18:59 45.3 °F 44.8 °F 30.3 in WSW 3 mph 6 mph 98% 0 in 0 W/m2
19:04 45.3 °F 44.6 °F 30.3 in WSW 2.4 mph 5 mph 97.4% 0 in 0 W/m2
19:09 45.3 °F 44.8 °F 30.3 in WSW 2.3 mph 5 mph 97.9% 0 in 0 W/m2
19:14 45.3 °F 44.8 °F 30.3 in WSW 3 mph 6 mph 97.8% 0 in 0 W/m2
19:19 45.3 °F 44.6 °F 30.3 in WSW 2.2 mph 5 mph 97.4% 0 in 0 W/m2
19:24 45.3 °F 44.4 °F 30.3 in West 2.2 mph 5 mph 97% 0 in 0 W/m2
19:29 45.3 °F 44.4 °F 30.3 in West 1.9 mph 6 mph 97% 0 in 0 W/m2
19:34 45.3 °F 44.6 °F 30.3 in West 3.5 mph 6 mph 97% 0 in 0 W/m2
19:39 45.5 °F 44.8 °F 30.3 in West 2.2 mph 7 mph 97% 0 in 0 W/m2
19:44 45.5 °F 44.8 °F 30.3 in West 3.9 mph 7 mph 97% 0 in 0 W/m2
19:49 45.7 °F 45 °F 30.3 in West 4.8 mph 8 mph 97% 0 in 0 W/m2
19:54 45.7 °F 45 °F 30.3 in West 5 mph 8 mph 97% 0 in 0 W/m2
19:59 45.7 °F 45 °F 30.3 in WSW 5.4 mph 9 mph 97% 0 in 0 W/m2
20:04 45.7 °F 45 °F 30.3 in West 5.8 mph 9 mph 97% 0 in 0 W/m2
20:09 45.7 °F 45 °F 30.3 in West 6 mph 9 mph 97% 0 in 0 W/m2
20:14 45.7 °F 45 °F 30.3 in West 6 mph 9 mph 97% 0 in 0 W/m2
20:19 45.7 °F 45 °F 30.3 in West 5.5 mph 9 mph 97% 0 in 0 W/m2
20:24 45.7 °F 45 °F 30.3 in West 5.3 mph 9 mph 97% 0 in 0 W/m2
20:29 45.7 °F 45 °F 30.3 in West 5.6 mph 9 mph 97% 0 in 0 W/m2
20:34 45.7 °F 45 °F 30.3 in West 4.9 mph 8 mph 97% 0 in 0 W/m2
20:39 45.7 °F 45 °F 30.3 in West 5.2 mph 9 mph 97% 0 in 0 W/m2
20:44 45.7 °F 45 °F 30.3 in West 4.7 mph 8 mph 97% 0 in 0 W/m2
20:49 45.7 °F 45 °F 30.3 in West 4.3 mph 7 mph 97% 0 in 0 W/m2
20:54 45.7 °F 45 °F 30.3 in West 4.2 mph 7 mph 97% 0 in 0 W/m2
20:59 45.7 °F 45 °F 30.3 in West 5 mph 7 mph 97% 0 in 0 W/m2
21:04 45.7 °F 45 °F 30.3 in West 3.4 mph 7 mph 97% 0 in 0 W/m2
21:09 45.7 °F 45 °F 30.3 in West 3.6 mph 7 mph 97% 0 in 0 W/m2
21:14 45.7 °F 45 °F 30.3 in West 4.2 mph 7 mph 97% 0 in 0 W/m2
21:19 45.7 °F 45 °F 30.3 in WSW 4.5 mph 7 mph 97% 0 in 0 W/m2
21:24 45.7 °F 45 °F 30.3 in West 3.9 mph 9 mph 97% 0 in 0 W/m2
21:29 45.7 °F 45 °F 30.3 in West 4.7 mph 9 mph 97% 0 in 0 W/m2
21:34 45.9 °F 45 °F 30.3 in West 5 mph 8 mph 97% 0 in 0 W/m2
21:39 45.7 °F 45 °F 30.3 in West 4.3 mph 7 mph 97% 0 in 0 W/m2
21:44 45.7 °F 45 °F 30.3 in West 4.7 mph 9 mph 97.6% 0 in 0 W/m2
21:49 45.7 °F 45.1 °F 30.3 in West 4.6 mph 8 mph 97.8% 0 in 0 W/m2
21:54 45.7 °F 45.1 °F 30.3 in West 5.6 mph 9 mph 98% 0 in 0 W/m2
21:59 45.7 °F 45.1 °F 30.3 in West 5.3 mph 8 mph 98% 0 in 0 W/m2
22:04 45.7 °F 45.1 °F 30.3 in West 5.9 mph 9 mph 98% 0 in 0 W/m2
22:09 45.7 °F 45.1 °F 30.3 in West 5 mph 9 mph 97.8% 0 in 0 W/m2
22:14 45.7 °F 45 °F 30.3 in West 5.1 mph 9 mph 97% 0 in 0 W/m2
22:19 45.7 °F 45 °F 30.3 in West 5.6 mph 9 mph 97% 0 in 0 W/m2
22:24 45.7 °F 45 °F 30.3 in West 6.2 mph 9 mph 97% 0 in 0 W/m2
22:29 45.7 °F 45 °F 30.3 in West 6.1 mph 8 mph 97.3% 0 in 0 W/m2
22:34 45.7 °F 45.1 °F 30.3 in West 6.2 mph 8 mph 98% 0 in 0 W/m2
22:39 45.7 °F 45.1 °F 30.3 in West 6 mph 9 mph 98% 0 in 0 W/m2
22:44 45.7 °F 45.1 °F 30.3 in West 4.8 mph 8 mph 98% 0 in 0 W/m2
22:49 45.7 °F 45.1 °F 30.3 in West 4.7 mph 8 mph 97.8% 0 in 0 W/m2
22:54 45.7 °F 45.1 °F 30.3 in West 4.5 mph 8 mph 97.9% 0 in 0 W/m2
22:59 45.7 °F 45 °F 30.3 in West 2.1 mph 6 mph 97% 0 in 0 W/m2
23:04 45.5 °F 44.8 °F 30.3 in WSW 0.3 mph 5 mph 97% 0 in 0 W/m2
23:09 45.3 °F 44.4 °F 30.3 in WSW 2.9 mph 5 mph 97% 0 in 0 W/m2
23:14 45.3 °F 44.6 °F 30.3 in WSW 3.7 mph 5 mph 97.2% 0 in 0 W/m2
23:19 45.3 °F 44.6 °F 30.3 in WSW 2.5 mph 4 mph 97.5% 0 in 0 W/m2
23:24 45.1 °F 44.6 °F 30.3 in WSW 0.9 mph 5 mph 98% 0 in 0 W/m2
23:29 45.1 °F 44.4 °F 30.3 in WSW 4.8 mph 6 mph 97.8% 0 in 0 W/m2
23:34 44.8 °F 44.1 °F 30.3 in WSW 5 mph 7 mph 97% 0 in 0 W/m2
23:39 44.4 °F 43.7 °F 30.3 in WSW 4.2 mph 6 mph 97% 0 in 0 W/m2
23:44 44.2 °F 43.3 °F 30.3 in WSW 4 mph 5 mph 97% 0 in 0 W/m2
23:49 44.2 °F 43.3 °F 30.3 in WSW 3.3 mph 5 mph 97% 0 in 0 W/m2
23:54 43.7 °F 43 °F 30.3 in WSW 2.9 mph 6 mph 97% 0 in 0 W/m2
23:59 43.3 °F 42.6 °F 30.3 in WSW 3 mph 6 mph 97% 0 in 0 W/m2
North Lincolnshire Weather
Compliments of Weather Underground - 2 mb

Data updates at regular intervals.